Location: *
(46.1200°N, 11.2700°E)
Time: 10:28:02
(UTC+00:00)

Cosmos 1470 Rocket - Pass Details

Date: 02 March 2021
Orbit: 603 x 634 km, 82.5° (Epoch: 18 April)

Event Time Altitude Azimuth Distance (km) Brightness Sun altitude
Rises 18:17:42 0° 186° (S) 2,917 7.0 -13.8°
Reaches altitude 10° 18:19:56 10° 186° (S) 2,012 6.2 -14.1°
Maximum altitude 18:24:24 87° 101° (E) 639 3.5 -14.9°
Drops below altitude 10° 18:28:53 10° 10° (N) 2,017 6.2 -15.7°
Sets 18:31:08 0° 10° (N) 2,925 7.0 -16.1°
